Preview of NWS' New Version of Forecast
This preview is not operational and should not be used for support decisions.

Regional Weather Roundup (RWR)

Issued by National Weather Service (NWS)

                            
000
ASUS44 KJAN 210310
RWRMS 

MISSISSIPPI HOURLY WEATHER ROUNDUP
NATIONAL WEATHER SERVICE JACKSON MS
900 PM CST WED FEB 20 2019

NOTE: "FAIR: INDICATES FEW OR NO CLOUDS BELOW 12,000 FEET WITH NO
SIGNIFICANT WEATHER AND/OR OBSTRUCTIONS TO VISIBILITY.

MSZ001>002-007>008-010>013-018>021-025>028-034>036-210400-
NORTHWEST MISSISSIPPI
  
CITY           SKY/WX    TMP DP  RH WIND       PRES   REMARKS
BATESVILLE     FAIR      37  37 100 CALM      30.03R                  
CLARKSDALE     PTCLDY    41  41 100 CALM      30.04R                  
CLEVELAND      FAIR      43  43 100 CALM      30.04R                  
GREENWOOD      FAIR      45  43  93 CALM      30.03R                  
GREENVILLE     FAIR      44  42  93 CALM      30.02R                  
OLIVE BRANCH   CLEAR     39  39 100 CALM      30.02R FOG              
OXFORD         CLOUDY    41  39  93 CALM      30.04R                  
TUNICA           N/A     39  37  93 CALM      30.04R                  
WINONA         MOCLDY    44  44 100 CALM      30.03R                  
$$

MSZ003>006-009-014>017-022>024-029>033-037>039-210400-
NORTHEAST MISSISSIPPI
  
CITY           SKY/WX    TMP DP  RH WIND       PRES   REMARKS
ABERDEEN       CLOUDY    50  50 100 N5        30.03R                  
COLUMBUS AFB   CLOUDY    52  48  87 NW5       30.01R                  
CORINTH        CLOUDY    48  45  87 NW5       30.03R                  
GOLDN TRIANGLE CLOUDY    50  48  93 NW3       30.02R                  
STARKVILLE     CLOUDY    50  46  87 CALM      30.03R                  
TUPELO         CLOUDY    49  45  86 N7        30.03R                  
$$

MSZ040-058-210400-
CENTRAL MISSISSIPPI
  
CITY           SKY/WX    TMP DP  RH WIND       PRES   REMARKS
JACKSON INTL   CLOUDY    52  47  83 N7        30.02R                  
JACKSON HAWKNS CLOUDY    53  48  83 CALM      30.02R                  
MADISON        MOCLDY    50  50 100 CALM      30.02R                  
MERIDIAN KEY   CLOUDY    59  54  83 CALM      30.00R                  
MERIDIAN NAS   CLOUDY    57  54  89 NW7       30.01R                  
RAYMOND        FAIR      52  50  93 N3        30.01R                  
VICKSBURG VKS  CLOUDY    52  48  87 CALM      30.03R                  
$$

MSZ059>079-210400-
SOUTH MISSISSIPPI
  
CITY           SKY/WX    TMP DP  RH WIND       PRES   REMARKS
HATTIESBURG    LGT RAIN  61  59  93 CALM      29.99R                  
LAUREL         CLOUDY    57  57  98 NW3       30.00R                  
MCCOMB         RAIN      54  51  90 N3        30.00R FOG              
NATCHEZ        MOCLDY    52  47  83 N6        30.01R                  
PINE BELT      CLOUDY    58  56  93 N6        30.00R                  
$$

MSZ080>082-210400-
COASTAL MISSISSIPPI
  
CITY           SKY/WX    TMP DP  RH WIND       PRES   REMARKS
BILOXI         FOG       65  65 100 CALM      29.96S VSB 5/8          
PASCAGOULA     FOG       70  68  93 SW5       29.97R VSB 3/4          
GULFPORT       CLOUDY    66  66 100 CALM      29.96S FOG              
$$

LAZ007>009-015>016-023>026-210400-
NORTHEAST LOUISIANA
  
CITY           SKY/WX    TMP DP  RH WIND       PRES   REMARKS
BASTROP        FAIR      39  39  98 CALM      30.03R FOG              
TALLULAH/VBURG CLOUDY    51  45  79 N6        30.02R                  
VIDALIA        CLOUDY    53  47  82 NE3       30.01R                  
$$